| time (UTC) | temp F | wind direction | speed MPH | gust MPH | rain 1hr in | rain 24hr in | rain mn in | humidity % | barometer mb |
| 20260901000712 | 61 | 180 | 0.0 | 0.0 | 0.00 | 5.10 | 5.09 | 100 | |
| 20260901000212 | 61 | 180 | 0.0 | 0.0 | 0.00 | 5.10 | 5.09 | 100 | |
| 20260831235712 | 61 | 180 | 0.0 | 0.0 | 0.00 | 5.10 | 5.09 | 100 | |
| 20260831235212 | 61 | 180 | 0.0 | 0.0 | 0.00 | 5.10 | 5.09 | 100 | |
| 20260831234712 | 61 | 180 | 0.0 | 0.0 | 0.00 | 5.10 | 5.09 | 100 | |
| 20260831234212 | 61 | 180 | 0.0 | 0.0 | 0.00 | 5.10 | 5.09 | 100 | |
| 20260831233712 | 61 | 180 | 0.0 | 0.0 | 0.00 | 5.10 | 5.09 | 100 | |
| 20260831233212 | 61 | 180 | 0.0 | 0.0 | 0.00 | 5.10 | 5.09 | 100 | |
| 20260831232712 | 61 | 180 | 0.0 | 0.0 | 0.00 | 5.10 | 5.09 | 100 | |
| 20260831232212 | 61 | 180 | 0.0 | 0.0 | 0.00 | 5.10 | 5.09 | 100 | |
| 20260831231712 | 61 | 180 | 0.0 | 0.0 | 0.00 | 5.10 | 5.09 | 100 | |
| 20260831231212 | 61 | 180 | 0.0 | 0.0 | 0.00 | 5.10 | 5.09 | 100 | |
| 20260831230712 | 61 | 180 | 0.0 | 0.0 | 0.00 | 5.10 | 5.09 | 100 | |
| 20260831230212 | 61 | 180 | 0.0 | 0.0 | 0.00 | 5.10 | 5.09 | 100 | |
| 20260831225712 | 61 | 180 | 0.0 | 0.0 | 0.00 | 5.10 | 5.09 | 100 | |
| 20260831225212 | 61 | 180 | 0.0 | 0.0 | 0.00 | 5.10 | 5.09 | 100 | |
| 20260831224712 | 62 | 180 | 0.0 | 0.0 | 0.00 | 5.10 | 5.09 | 100 | |
| 20260831224212 | 62 | 180 | 0.0 | 0.0 | 0.00 | 5.10 | 5.09 | 100 | |
| 20260831223712 | 61 | 180 | 0.0 | 0.0 | 0.00 | 5.10 | 5.09 | 100 | |
| 20260831223212 | 62 | 180 | 0.0 | 0.0 | 0.00 | 5.10 | 5.09 | 100 | |
| 20260831222712 | 62 | 180 | 0.0 | 0.0 | 0.00 | 5.10 | 5.09 | 100 | |
| 20260831222212 | 62 | 180 | 0.0 | 0.0 | 0.00 | 5.10 | 5.09 | 100 | |
| 20260831221712 | 62 | 180 | 0.0 | 0.0 | 0.00 | 5.10 | 5.09 | 100 | |
| 20260831221212 | 62 | 180 | 0.0 | 0.0 | 0.00 | 5.10 | 5.09 | 100 | |
| 20260831220712 | 62 | 180 | 0.0 | 0.0 | 0.00 | 5.10 | 5.09 | 100 | |
| 20260831220212 | 62 | 180 | 0.0 | 0.0 | 0.00 | 5.10 | 5.09 | 100 | |
| 20260831215712 | 62 | 180 | 0.0 | 0.0 | 0.00 | 5.10 | 5.09 | 100 | |
| 20260831215212 | 62 | 180 | 0.0 | 0.0 | 0.00 | 5.10 | 5.09 | 100 | |
| 20260831214712 | 62 | 180 | 0.0 | 0.0 | 0.00 | 5.10 | 5.09 | 100 | |
| 20260831214212 | 62 | 180 | 0.0 | 0.0 | 0.00 | 5.10 | 5.09 | 100 | |
| 20260831213712 | 62 | 180 | 0.0 | 0.0 | 0.00 | 5.10 | 5.09 | 100 | |
| 20260831213212 | 62 | 180 | 0.0 | 0.0 | 0.00 | 5.10 | 5.09 | 100 | |
| 20260831212712 | 62 | 180 | 0.0 | 0.0 | 0.00 | 5.10 | 5.09 | 100 | |
| 20260831212212 | 62 | 180 | 0.0 | 0.0 | 0.00 | 5.10 | 5.09 | 100 | |
| 20260831211712 | 63 | 180 | 0.0 | 0.0 | 0.00 | 5.10 | 5.09 | 100 | |
| 20260831211212 | 62 | 180 | 0.0 | 0.0 | 0.00 | 5.10 | 5.09 | 100 | |
| 20260831210712 | 63 | 180 | 0.0 | 0.0 | 0.00 | 5.10 | 5.09 | 100 | |
| 20260831210212 | 63 | 180 | 0.0 | 0.0 | 0.00 | 5.10 | 5.09 | 100 | |
| 20260831205712 | 63 | 180 | 0.0 | 0.0 | 0.00 | 5.10 | 5.09 | 100 | |
| 20260831205212 | 63 | 180 | 0.0 | 0.0 | 0.00 | 5.10 | 5.09 | 100 | |
| 20260831204712 | 63 | 180 | 0.0 | 0.0 | 0.00 | 5.10 | 5.09 | 100 | |
| 20260831204212 | 63 | 180 | 0.0 | 0.0 | 0.00 | 5.10 | 5.09 | 100 | |
| 20260831203712 | 63 | 180 | 0.0 | 0.0 | 0.00 | 5.10 | 5.09 | 100 | |
| 20260831203212 | 63 | 180 | 0.0 | 0.0 | 0.00 | 5.10 | 5.09 | 100 | |
| 20260831202712 | 63 | 180 | 0.0 | 2.0 | 0.00 | 5.10 | 5.09 | 100 | |
| 20260831202212 | 63 | 180 | 1.0 | 3.0 | 0.00 | 5.10 | 5.09 | 100 | |
| 20260831201712 | 63 | 180 | 0.0 | 2.0 | 0.00 | 5.10 | 5.09 | 100 | |
| 20260831201212 | 63 | 180 | 0.0 | 0.0 | 0.00 | 5.10 | 5.09 | 100 | |
| 20260831200712 | 63 | 180 | 0.0 | 0.0 | 0.00 | 5.10 | 5.09 | 100 | |
| 20260831200212 | 63 | 180 | 0.0 | 2.0 | 0.00 | 5.10 | 5.09 | 100 | |
| 20260831195712 | 63 | 180 | 0.0 | 4.0 | 0.00 | 5.10 | 5.09 | 100 | |
| 20260831195212 | 63 | 180 | 0.0 | 3.0 | 0.00 | 5.10 | 5.09 | 100 | |
| 20260831194712 | 63 | 180 | 0.0 | 4.0 | 0.00 | 5.10 | 5.09 | 100 | |
| 20260831194212 | 63 | 180 | 0.0 | 0.0 | 0.00 | 5.10 | 5.09 | 100 | |
| 20260831193712 | 63 | 180 | 0.0 | 0.0 | 0.00 | 5.10 | 5.09 | 100 | |
| 20260831193212 | 63 | 180 | 0.0 | 0.0 | 0.00 | 5.10 | 5.09 | 100 | |
| 20260831192712 | 63 | 180 | 0.0 | 0.0 | 0.00 | 5.10 | 5.09 | 100 | |
| 20260831192212 | 63 | 180 | 0.0 | 0.0 | 0.00 | 5.10 | 5.09 | 100 | |
| 20260831191712 | 64 | 180 | 0.0 | 0.0 | 0.00 | 5.10 | 5.09 | 100 | |
| 20260831191212 | 63 | 180 | 0.0 | 0.0 | 0.00 | 5.10 | 5.09 | 100 | |
| 20260831190712 | 63 | 180 | 0.0 | 0.0 | 0.01 | 5.10 | 5.09 | 100 | |
| 20260831190212 | 63 | 180 | 0.0 | 0.0 | 0.02 | 5.10 | 5.09 | 100 | |
| 20260831185712 | 64 | 180 | 0.0 | 0.0 | 0.10 | 5.10 | 5.09 | 100 | |
| 20260831185212 | 64 | 180 | 0.0 | 0.0 | 0.10 | 5.10 | 5.09 | 100 | |
| 20260831184712 | 64 | 180 | 0.0 | 0.0 | 0.10 | 5.10 | 5.09 | 100 | |
| 20260831184212 | 64 | 180 | 0.0 | 0.0 | 0.10 | 5.10 | 5.09 | 100 | |
| 20260831183713 | 64 | 180 | 0.0 | 0.0 | 0.10 | 5.10 | 5.09 | 100 | |
| 20260831183212 | 65 | 180 | 0.0 | 0.0 | 0.10 | 5.10 | 5.09 | 100 | |
| 20260831182713 | 65 | 180 | 0.0 | 0.0 | 0.10 | 5.10 | 5.09 | 100 | |
| 20260831182213 | 65 | 180 | 0.0 | 0.0 | 0.10 | 5.10 | 5.09 | 100 | |
| 20260831181713 | 65 | 180 | 0.0 | 0.0 | 0.10 | 5.10 | 5.09 | 100 | |
| 20260831181213 | 65 | 180 | 0.0 | 0.0 | 0.10 | 5.10 | 5.09 | 100 | |
| 20260831180713 | 65 | 180 | 0.0 | 6.0 | 0.09 | 5.09 | 5.08 | 100 | |
| 20260831180213 | 65 | 180 | 2.0 | 6.0 | 0.08 | 5.08 | 5.07 | 100 | |
| 20260831175713 | 66 | 180 | 0.0 | 7.0 | 0.00 | 5.00 | 4.99 | 100 | |
| 20260831175213 | 66 | 180 | 0.0 | 3.0 | 0.01 | 5.00 | 4.99 | 99 | |
| 20260831174713 | 66 | 180 | 0.0 | 2.0 | 0.05 | 5.00 | 4.99 | 99 | |
| 20260831174213 | 66 | 180 | 0.0 | 4.0 | 0.10 | 5.00 | 4.99 | 99 | |
| 20260831173713 | 66 | 180 | 1.0 | 1.0 | 0.10 | 5.00 | 4.99 | 99 | |
| 20260831173213 | 66 | 180 | 0.0 | 1.0 | 0.10 | 5.00 | 4.99 | 98 | |
| 20260831172713 | 66 | 180 | 0.0 | 3.0 | 0.11 | 5.00 | 4.99 | 98 | |
| 20260831172213 | 67 | 180 | 0.0 | 4.0 | 0.11 | 5.00 | 4.99 | 98 | |
| 20260831171713 | 67 | 180 | 1.0 | 8.0 | 0.11 | 5.00 | 4.99 | 98 | |
| 20260831171213 | 67 | 180 | 0.0 | 12.0 | 0.12 | 5.00 | 4.99 | 98 | |
| 20260831170713 | 67 | 180 | 6.0 | 9.0 | 0.15 | 5.00 | 4.99 | 98 | |
| 20260831170213 | 67 | 180 | 2.0 | 9.0 | 0.17 | 5.00 | 4.99 | 97 | |
| 20260831165713 | 68 | 180 | 1.0 | 9.0 | 0.20 | 5.00 | 4.99 | 93 | |
| 20260831165213 | 69 | 180 | 1.0 | 8.0 | 0.19 | 4.99 | 4.98 | 89 | |
| 20260831164713 | 71 | 180 | 1.0 | 14.0 | 0.15 | 5.02 | 4.94 | 81 | |
| 20260831164213 | 74 | 180 | 11.0 | 12.0 | 0.10 | 4.97 | 4.89 | 60 | |
| 20260831163716 | 75 | 180 | 0.0 | 12.0 | 0.10 | 4.97 | 4.89 | 55 | |
| 20260831163213 | 75 | 180 | 5.0 | 22.0 | 0.10 | 4.97 | 4.89 | 52 | |
| 20260831162713 | 74 | 180 | 2.0 | 11.0 | 0.09 | 4.96 | 4.88 | 73 | |
| 20260831162213 | 74 | 180 | 0.0 | 0.0 | 0.09 | 4.96 | 4.88 | 74 | |
| 20260831161713 | 74 | 180 | 0.0 | 0.0 | 0.09 | 4.96 | 4.88 | 73 | |
| 20260831161213 | 75 | 180 | 0.0 | 0.0 | 0.08 | 4.95 | 4.87 | 70 | |
| 20260831160713 | 76 | 180 | 0.0 | 0.0 | 0.05 | 4.92 | 4.84 | 68 | |
| 20260831160213 | 77 | 180 | 0.0 | 0.0 | 0.03 | 4.90 | 4.82 | 62 | |
| 20260831155713 | 77 | 180 | 0.0 | 0.0 | 0.00 | 4.87 | 4.79 | 61 | |
| 20260831155213 | 78 | 180 | 0.0 | 0.0 | 0.01 | 4.87 | 4.79 | 60 | |
| 20260831154713 | 79 | 180 | 0.0 | 0.0 | 0.01 | 7.00 | 4.79 | 56 | |
| 20260831154213 | 80 | 180 | 0.0 | 0.0 | 0.01 | 7.00 | 4.79 | 53 | |
| 20260831153713 | 81 | 180 | 0.0 | 0.0 | 0.01 | 7.00 | 4.79 | 50 | |
| 20260831153213 | 82 | 180 | 0.0 | 0.0 | 0.01 | 7.00 | 4.79 | 45 | |
| 20260831152713 | 84 | 180 | 0.0 | 3.0 | 0.01 | 7.00 | 4.79 | 42 | |
| 20260831152213 | 84 | 180 | 0.0 | 0.0 | 0.01 | 7.00 | 4.79 | 41 | |
| 20260831151713 | 85 | 180 | 0.0 | 0.0 | 0.01 | 7.00 | 4.79 | 38 | |
| 20260831151213 | 85 | 180 | 0.0 | 0.0 | 0.02 | 7.00 | 4.79 | 34 | |
| 20260831150713 | 86 | 180 | 0.0 | 0.0 | 0.03 | 7.00 | 4.79 | 33 | |
| 20260831150213 | 86 | 180 | 0.0 | 0.0 | 0.03 | 7.00 | 4.79 | 32 | |
| 20260831145713 | 86 | 180 | 0.0 | 0.0 | 0.03 | 7.00 | 4.79 | 31 | |
| 20260831145213 | 87 | 180 | 0.0 | 2.0 | 0.02 | 6.99 | 4.78 | 30 | |
| 20260831144713 | 87 | 180 | 0.0 | 3.0 | 0.03 | 0.00 | 4.78 | 29 | |
| 20260831144213 | 87 | 180 | 0.0 | 7.0 | 0.06 | 0.00 | 4.78 | 29 | |
| 20260831143713 | 87 | 180 | 1.0 | 4.0 | 0.06 | 0.00 | 4.78 | 27 | |
| 20260831142713 | 88 | 180 | 0.0 | 3.0 | 0.16 | 0.00 | 4.78 | 30 | |
| 20260831142213 | 87 | 180 | 0.0 | 5.0 | 0.33 | 0.00 | 4.78 | 28 | |
| 20260831141713 | 88 | 180 | 2.0 | 4.0 | 0.33 | 0.00 | 4.78 | 28 | |
| 20260831141213 | 87 | 180 | 1.0 | 5.0 | 0.33 | 9.99 | 4.77 | 31 | |
| 20260831140713 | 87 | 180 | 0.0 | 5.0 | 0.32 | 9.98 | 4.76 | 30 | |
| 20260831140213 | 88 | 180 | 3.0 | 4.0 | 0.33 | 9.98 | 4.76 | 29 | |
| 20260831135713 | 88 | 180 | 2.0 | 4.0 | 0.34 | 9.98 | 4.76 | 29 | |
| 20260831135213 | 88 | 180 | 1.0 | 5.0 | 0.42 | 9.98 | 4.76 | 30 | |
| 20260831134713 | 87 | 180 | 0.0 | 4.0 | 0.54 | 8.27 | 4.75 | 30 | |
| 20260831134213 | 87 | 180 | 0.0 | 6.0 | 0.60 | 8.24 | 4.72 | 31 | |
| 20260831133713 | 88 | 180 | 0.0 | 4.0 | 0.67 | 8.24 | 4.72 | 29 | |
| 20260831133213 | 87 | 180 | 0.0 | 4.0 | 0.81 | 8.15 | 4.63 | 28 | |
| 20260831132713 | 87 | 180 | 0.0 | 6.0 | 1.40 | 8.14 | 4.62 | 29 | |
| 20260831132213 | 87 | 180 | 1.0 | 7.0 | 1.70 | 7.97 | 4.45 | 28 | |
| 20260831131713 | 87 | 180 | 2.0 | 10.0 | 2.77 | 7.97 | 4.45 | 30 | |
| 20260831131213 | 88 | 180 | 1.0 | 5.0 | 3.64 | 7.96 | 4.44 | 30 | |
| 20260831130713 | 87 | 180 | 0.0 | 2.0 | 3.78 | 7.96 | 4.44 | 28 | |
| 20260831130213 | 87 | 180 | 2.0 | 3.0 | 4.25 | 7.95 | 4.43 | 28 | |
| 20260831125713 | 87 | 180 | 1.0 | 4.0 | 4.42 | 7.94 | 4.42 | 29 | |
| 20260831125213 | 87 | 180 | 1.0 | 5.0 | 4.34 | 7.86 | 4.33 | 29 | |
| 20260831124713 | 86 | 180 | 4.0 | 11.0 | 4.21 | 7.75 | 4.21 | 33 | |
| 20260831124213 | 87 | 180 | 2.0 | 5.0 | 4.12 | 7.66 | 4.12 | 30 | |
| 20260831123713 | 87 | 180 | 1.0 | 2.0 | 4.05 | 7.59 | 4.05 | 31 | |
| 20260831123213 | 87 | 180 | 1.0 | 2.0 | 3.82 | 7.36 | 3.82 | 31 | |
| 20260831122713 | 87 | 180 | 1.0 | 5.0 | 3.22 | 6.76 | 3.22 | 31 | |
| 20260831122213 | 87 | 180 | 1.0 | 3.0 | 2.75 | 6.29 | 2.75 | 30 | |
| 20260831121713 | 87 | 180 | 0.0 | 3.0 | 1.68 | 5.22 | 1.68 | 32 | |
| 20260831121213 | 87 | 180 | 0.0 | 2.0 | 0.80 | 4.34 | 0.80 | 29 | |
| 20260831120713 | 87 | 180 | 0.0 | 3.0 | 0.66 | 4.20 | 0.66 | 29 | |
| 20260831120214 | 86 | 180 | 1.0 | 5.0 | 0.18 | 3.72 | 0.18 | 30 | |
| 20260831115714 | 86 | 180 | 1.0 | 4.0 | 0.00 | 3.54 | 0.00 | 31 | |
| 20260831115214 | 86 | 180 | 0.0 | 3.0 | 0.00 | 3.54 | 0.00 | 33 | |
| 20260831114714 | 85 | 180 | 0.0 | 6.0 | 0.00 | 3.54 | 0.00 | 33 | |
| 20260831114214 | 85 | 180 | 3.0 | 6.0 | 0.00 | 3.54 | 0.00 | 32 | |
| 20260831113714 | 85 | 180 | 3.0 | 7.0 | 0.00 | 3.54 | 0.00 | 31 | |
| 20260831113214 | 86 | 180 | 5.0 | 7.0 | 0.00 | 3.54 | 0.00 | 31 | |
| 20260831112714 | 86 | 180 | 1.0 | 4.0 | 0.00 | 3.54 | 0.00 | 32 | |
| 20260831112214 | 86 | 180 | 3.0 | 4.0 | 0.00 | 3.54 | 0.00 | 33 | |
| 20260831111714 | 85 | 180 | 2.0 | 8.0 | 0.00 | 3.54 | 0.00 | 33 | |
| 20260831111214 | 85 | 180 | 3.0 | 4.0 | 0.00 | 3.54 | 0.00 | 33 | |
| 20260831110714 | 85 | 180 | 0.0 | 4.0 | 0.00 | 3.54 | 0.00 | 32 | |
| 20260831110214 | 85 | 180 | 3.0 | 4.0 | 0.00 | 3.54 | 0.00 | 33 | |
| 20260831105714 | 84 | 180 | 0.0 | 5.0 | 0.00 | 3.54 | 0.00 | 34 | |
| 20260831105214 | 84 | 180 | 0.0 | 4.0 | 0.00 | 3.54 | 0.00 | 35 | |
| 20260831104714 | 84 | 180 | 2.0 | 6.0 | 0.00 | 3.58 | 0.00 | 36 | |
| 20260831104214 | 84 | 180 | 1.0 | 8.0 | 0.00 | 3.58 | 0.00 | 34 | |
| 20260831103714 | 84 | 180 | 3.0 | 9.0 | 0.00 | 3.58 | 0.00 | 35 | |
| 20260831103214 | 84 | 180 | 0.0 | 4.0 | 0.00 | 3.58 | 0.00 | 34 | |
| 20260831102714 | 84 | 180 | 0.0 | 4.0 | 0.00 | 3.58 | 0.00 | 36 | |
| 20260831102214 | 84 | 180 | 0.0 | 6.0 | 0.00 | 3.58 | 0.00 | 36 | |
| 20260831101714 | 83 | 180 | 0.0 | 6.0 | 0.00 | 3.58 | 0.00 | 36 | |
| 20260831101214 | 83 | 180 | 0.0 | 6.0 | 0.00 | 3.58 | 0.00 | 36 | |
| 20260831100714 | 83 | 180 | 2.0 | 6.0 | 0.00 | 3.58 | 0.00 | 37 | |
| 20260831100214 | 83 | 180 | 3.0 | 5.0 | 0.00 | 3.58 | 0.00 | 37 | |
| 20260831095714 | 83 | 180 | 3.0 | 5.0 | 0.00 | 3.58 | 0.00 | 37 | |
| 20260831095214 | 83 | 180 | 1.0 | 2.0 | 0.00 | 3.58 | 0.00 | 40 | |
| 20260831094714 | 82 | 180 | 1.0 | 8.0 | 0.00 | 3.59 | 0.00 | 39 | |
| 20260831094214 | 82 | 180 | 6.0 | 8.0 | 0.00 | 3.59 | 0.00 | 39 | |
| 20260831093714 | 83 | 180 | 0.0 | 4.0 | 0.00 | 3.59 | 0.00 | 39 | |
| 20260831093214 | 82 | 180 | 0.0 | 2.0 | 0.00 | 3.59 | 0.00 | 43 | |
| 20260831092714 | 82 | 180 | 0.0 | 7.0 | 0.00 | 3.59 | 0.00 | 42 | |
| 20260831092214 | 81 | 180 | 0.0 | 5.0 | 0.00 | 3.59 | 0.00 | 43 | |
| 20260831091714 | 81 | 180 | 1.0 | 7.0 | 0.00 | 3.59 | 0.00 | 42 | |
| 20260831091214 | 81 | 180 | 0.0 | 2.0 | 0.00 | 3.59 | 0.00 | 44 | |
| 20260831090714 | 80 | 180 | 0.0 | 3.0 | 0.00 | 3.59 | 0.00 | 44 | |
| 20260831090214 | 80 | 180 | 2.0 | 6.0 | 0.00 | 3.59 | 0.00 | 45 | |
| 20260831085714 | 80 | 180 | 0.0 | 4.0 | 0.00 | 3.59 | 0.00 | 45 | |
| 20260831085214 | 79 | 180 | 3.0 | 6.0 | 0.00 | 3.59 | 0.00 | 47 | |
| 20260831084714 | 79 | 180 | 2.0 | 2.0 | 0.00 | 3.59 | 3.59 | 48 | |
| 20260831084214 | 78 | 180 | 0.0 | 5.0 | 0.00 | 3.59 | 3.59 | 50 | |
| 20260831083714 | 78 | 180 | 0.0 | 4.0 | 0.00 | 3.59 | 3.59 | 53 | |
| 20260831082714 | 77 | 180 | 2.0 | 4.0 | 0.00 | 3.59 | 3.59 | 53 | |
| 20260831082214 | 77 | 180 | 0.0 | 2.0 | 0.00 | 3.59 | 3.59 | 56 | |
| 20260831081714 | 76 | 180 | 1.0 | 4.0 | 0.00 | 3.59 | 3.59 | 57 | |
| 20260831081214 | 76 | 180 | 0.0 | 5.0 | 0.00 | 3.59 | 3.59 | 60 | |
| 20260831080714 | 75 | 180 | 1.0 | 3.0 | 0.00 | 3.59 | 3.59 | 61 | |
| 20260831080214 | 75 | 180 | 0.0 | 5.0 | 0.00 | 3.59 | 3.59 | 61 | |
| 20260831075714 | 75 | 180 | 0.0 | 4.0 | 0.00 | 3.59 | 3.59 | 62 | |
| 20260831075214 | 75 | 180 | 1.0 | 2.0 | 0.00 | 3.59 | 3.59 | 65 | |
| 20260831074714 | 74 | 180 | 0.0 | 1.0 | 0.00 | 3.59 | 3.59 | 67 | |
| 20260831074215 | 74 | 180 | 0.0 | 3.0 | 0.00 | 3.59 | 3.59 | 72 | |
| 20260831073714 | 73 | 180 | 0.0 | 0.0 | 0.00 | 3.59 | 3.59 | 81 | |
| 20260831073214 | 72 | 180 | 0.0 | 0.0 | 0.00 | 3.59 | 3.59 | 86 | |
| 20260831072714 | 71 | 180 | 0.0 | 0.0 | 0.00 | 3.59 | 3.59 | 86 | |
| 20260831072214 | 70 | 180 | 0.0 | 0.0 | 0.00 | 3.59 | 3.59 | 95 | |
| 20260831071714 | 69 | 180 | 0.0 | 0.0 | 0.00 | 3.59 | 3.59 | 98 | |
| 20260831071214 | 68 | 180 | 0.0 | 0.0 | 0.00 | 3.59 | 3.59 | 100 | |
| 20260831070714 | 67 | 180 | 0.0 | 0.0 | 0.00 | 3.59 | 3.59 | 100 | |
| 20260831070214 | 66 | 180 | 0.0 | 0.0 | 0.00 | 3.59 | 3.59 | 100 | |
| 20260831065714 | 65 | 180 | 0.0 | 0.0 | 0.00 | 3.59 | 3.59 | 100 | |
| 20260831065214 | 65 | 180 | 0.0 | 0.0 | 0.00 | 3.59 | 3.59 | 100 | |
| 20260831064714 | 64 | 180 | 0.0 | 0.0 | 0.00 | 3.59 | 3.59 | 100 | |
| 20260831064214 | 64 | 180 | 0.0 | 0.0 | 0.00 | 3.59 | 3.59 | 100 | |
| 20260831063714 | 63 | 180 | 0.0 | 0.0 | 0.00 | 3.59 | 3.59 | 100 | |
| 20260831063214 | 62 | 180 | 0.0 | 0.0 | 0.00 | 3.59 | 3.59 | 100 | |
| 20260831062714 | 62 | 180 | 0.0 | 0.0 | 0.00 | 3.59 | 3.59 | 100 | |
| 20260831062214 | 61 | 180 | 0.0 | 0.0 | 0.00 | 3.59 | 3.59 | 100 | |
| 20260831061714 | 61 | 180 | 0.0 | 0.0 | 0.00 | 3.59 | 3.59 | 100 | |
| 20260831061214 | 60 | 180 | 0.0 | 0.0 | 0.00 | 3.59 | 3.59 | 100 | |
| 20260831060714 | 59 | 180 | 0.0 | 0.0 | 0.00 | 3.59 | 3.59 | 100 | |
| 20260831060214 | 59 | 180 | 0.0 | 0.0 | 0.00 | 3.59 | 3.59 | 100 | |
| 20260831055714 | 58 | 180 | 0.0 | 0.0 | 0.00 | 3.59 | 3.59 | 100 | |
| 20260831055214 | 57 | 180 | 0.0 | 0.0 | 0.00 | 3.59 | 3.59 | 100 | |
| 20260831054714 | 57 | 180 | 0.0 | 0.0 | 0.00 | 3.59 | 3.59 | 100 | |
| 20260831054214 | 56 | 180 | 0.0 | 0.0 | 0.00 | 3.59 | 3.59 | 100 | |
| 20260831053714 | 56 | 180 | 0.0 | 0.0 | 0.00 | 3.59 | 3.59 | 100 | |
| 20260831053215 | 55 | 180 | 0.0 | 0.0 | 0.00 | 3.59 | 3.59 | 100 | |
| 20260831052715 | 55 | 180 | 0.0 | 0.0 | 0.00 | 3.59 | 3.59 | 100 | |
| 20260831052214 | 54 | 180 | 0.0 | 0.0 | 0.00 | 3.59 | 3.59 | 100 | |
| 20260831051715 | 53 | 180 | 0.0 | 0.0 | 0.01 | 3.59 | 3.59 | 100 | |
| 20260831051215 | 52 | 180 | 0.0 | 0.0 | 0.01 | 3.59 | 3.59 | 100 | |
| 20260831050715 | 52 | 180 | 0.0 | 0.0 | 0.01 | 3.59 | 3.59 | 100 | |
| 20260831050215 | 52 | 180 | 0.0 | 0.0 | 0.01 | 3.59 | 3.59 | 100 | |
| 20260831045715 | 52 | 180 | 0.0 | 0.0 | 0.01 | 3.59 | 3.59 | 100 | |
| 20260831045215 | 51 | 180 | 0.0 | 0.0 | 0.01 | 3.59 | 3.59 | 100 | |
| 20260831044715 | 51 | 180 | 0.0 | 0.0 | 0.01 | 3.59 | 3.59 | 100 | |
| 20260831044215 | 51 | 180 | 0.0 | 0.0 | 0.01 | 3.59 | 3.59 | 100 | |
| 20260831043715 | 51 | 180 | 0.0 | 0.0 | 0.01 | 3.59 | 3.59 | 100 | |
| 20260831043215 | 51 | 180 | 0.0 | 0.0 | 0.01 | 3.59 | 3.59 | 100 | |
| 20260831042715 | 51 | 180 | 0.0 | 0.0 | 0.01 | 3.59 | 3.59 | 100 | |
| 20260831042215 | 51 | 180 | 0.0 | 0.0 | 0.01 | 3.59 | 3.59 | 100 | |
| 20260831041715 | 51 | 180 | 0.0 | 0.0 | 0.00 | 3.58 | 3.58 | 100 | |
| 20260831041215 | 51 | 180 | 0.0 | 0.0 | 0.00 | 3.58 | 3.58 | 100 | |
| 20260831040715 | 51 | 180 | 0.0 | 0.0 | 0.00 | 3.58 | 3.58 | 100 | |
| 20260831040215 | 51 | 180 | 0.0 | 0.0 | 0.00 | 3.58 | 3.58 | 100 | |
| 20260831035715 | 51 | 180 | 0.0 | 0.0 | 0.00 | 3.58 | 3.58 | 100 | |
| 20260831035215 | 51 | 180 | 0.0 | 0.0 | 0.00 | 3.58 | 3.58 | 100 | |
| 20260831034715 | 51 | 180 | 0.0 | 0.0 | 0.00 | 3.58 | 3.58 | 100 | |
| 20260831034215 | 51 | 180 | 0.0 | 0.0 | 0.00 | 3.58 | 3.58 | 100 | |
| 20260831033715 | 51 | 180 | 0.0 | 0.0 | 0.00 | 3.58 | 3.58 | 100 | |
| 20260831033215 | 51 | 180 | 0.0 | 0.0 | 0.00 | 3.58 | 3.58 | 100 | |
| 20260831032715 | 51 | 180 | 0.0 | 0.0 | 0.00 | 3.58 | 3.58 | 100 | |
| 20260831032215 | 51 | 180 | 0.0 | 0.0 | 0.00 | 3.58 | 3.58 | 100 | |
| 20260831031715 | 52 | 180 | 0.0 | 0.0 | 0.00 | 3.58 | 3.58 | 100 | |
| 20260831031215 | 52 | 180 | 0.0 | 0.0 | 0.00 | 3.58 | 3.58 | 100 | |
| 20260831030715 | 52 | 180 | 0.0 | 0.0 | 0.00 | 3.58 | 3.58 | 100 | |
| 20260831030215 | 52 | 180 | 0.0 | 0.0 | 0.00 | 3.58 | 3.58 | 100 | |
| 20260831025715 | 52 | 180 | 0.0 | 0.0 | 0.00 | 3.58 | 3.58 | 100 | |
| 20260831025215 | 52 | 180 | 0.0 | 0.0 | 0.00 | 3.58 | 3.58 | 100 | |
| 20260831024715 | 52 | 180 | 0.0 | 0.0 | 0.00 | 3.58 | 3.58 | 100 | |
| 20260831024215 | 52 | 180 | 0.0 | 0.0 | 0.00 | 3.58 | 3.58 | 100 | |
| 20260831023715 | 52 | 180 | 0.0 | 0.0 | 0.00 | 3.58 | 3.58 | 100 | |
| 20260831023215 | 52 | 180 | 0.0 | 0.0 | 0.00 | 3.58 | 3.58 | 100 | |
| 20260831022715 | 52 | 180 | 0.0 | 0.0 | 0.00 | 3.58 | 3.58 | 100 | |
| 20260831022215 | 52 | 180 | 0.0 | 0.0 | 0.00 | 3.58 | 3.58 | 100 | |
| 20260831021715 | 52 | 180 | 0.0 | 0.0 | 0.00 | 3.58 | 3.58 | 100 | |
| 20260831021215 | 52 | 180 | 0.0 | 0.0 | 0.00 | 3.58 | 3.58 | 100 | |
| 20260831020715 | 52 | 180 | 0.0 | 0.0 | 0.00 | 3.58 | 3.58 | 100 | |
| 20260831020215 | 52 | 180 | 0.0 | 0.0 | 0.00 | 3.58 | 3.58 | 100 | |
| 20260831015715 | 52 | 180 | 0.0 | 0.0 | 0.00 | 3.58 | 3.58 | 100 | |
| 20260831015215 | 52 | 180 | 0.0 | 0.0 | 0.00 | 3.58 | 3.58 | 100 | |
| 20260831014715 | 52 | 180 | 0.0 | 0.0 | 0.00 | 3.58 | 3.58 | 100 | |
| 20260831014215 | 53 | 180 | 0.0 | 0.0 | 0.00 | 3.58 | 3.58 | 100 | |
| 20260831013715 | 52 | 180 | 0.0 | 0.0 | 0.00 | 3.58 | 3.58 | 100 | |
| 20260831013215 | 52 | 180 | 0.0 | 0.0 | 0.00 | 3.58 | 3.58 | 100 | |
| 20260831012715 | 52 | 180 | 0.0 | 0.0 | 0.00 | 3.58 | 3.58 | 100 | |
| 20260831012215 | 53 | 180 | 0.0 | 0.0 | 0.00 | 3.58 | 3.58 | 100 | |
| 20260831011715 | 53 | 180 | 0.0 | 0.0 | 0.00 | 3.58 | 3.58 | 100 | |
| 20260831011215 | 53 | 180 | 0.0 | 0.0 | 0.00 | 3.58 | 3.58 | 100 | |
| 20260831010715 | 53 | 180 | 0.0 | 0.0 | 0.00 | 3.58 | 3.58 | 100 | |
| 20260831010215 | 53 | 180 | 0.0 | 0.0 | 0.00 | 3.58 | 3.58 | 100 | |
| 20260831005715 | 53 | 180 | 0.0 | 0.0 | 0.00 | 3.58 | 3.58 | 100 | |
| 20260831005215 | 53 | 180 | 0.0 | 0.0 | 0.00 | 3.58 | 3.58 | 100 | |
| 20260831004715 | 53 | 180 | 0.0 | 0.0 | 0.00 | 3.58 | 3.58 | 100 | |
| 20260831004215 | 53 | 180 | 0.0 | 0.0 | 0.00 | 3.58 | 3.58 | 100 | |
| 20260831003715 | 53 | 180 | 0.0 | 0.0 | 0.00 | 3.58 | 3.58 | 100 | |
| 20260831003215 | 53 | 180 | 0.0 | 0.0 | 0.00 | 3.58 | 3.58 | 100 | |
| 20260831002715 | 53 | 180 | 0.0 | 0.0 | 0.00 | 3.58 | 3.58 | 100 | |
| 20260831002215 | 53 | 180 | 0.0 | 0.0 | 0.00 | 3.58 | 3.58 | 100 | |
| 20260831001715 | 53 | 180 | 0.0 | 0.0 | 0.00 | 3.58 | 3.58 | 100 | |
| 20260831001215 | 53 | 180 | 0.0 | 0.0 | 0.00 | 3.58 | 3.58 | 100 |